EAL1951 KCLT-KELP

Flight info

Callsign EAL1951
Flight time 3h 47m
Altitude 36000
Route ESTRR5 IPTAY CHOPZ THRSR VLKNN Q30 IZAAC ELD FUZ J66 BGS LIFFT SAMMR3
Aircraft B752/M-L/6006

Departure

Time 2026-05-06 07:41
Airport Charlotte Douglas International Airport (KCLT)

Arrival

Time 2026-05-06 11:28
Airport El Paso International Airport (KELP)
Time Latitude Longitude Altitude Speed Heading
2026-05-06 07:38 35.22432 -80.93613 758 ft 0 kts 176°
2026-05-06 07:40 35.22223 -80.93595 758 ft 76 kts 176°
2026-05-06 07:40 35.21378 -80.93522 777 ft 163 kts 176°
2026-05-06 07:41 35.20149 -80.93420 1706 ft 181 kts 178°
2026-05-06 07:41 35.18935 -80.93718 3174 ft 177 kts 206°
2026-05-06 07:41 35.18128 -80.94821 4188 ft 180 kts 241°
2026-05-06 07:41 35.17905 -80.96344 5050 ft 182 kts 261°
2026-05-06 07:42 35.17830 -80.97878 5815 ft 186 kts 262°
2026-05-06 07:42 35.17689 -80.99509 6361 ft 200 kts 259°
2026-05-06 07:42 35.17452 -81.01238 6890 ft 213 kts 257°
2026-05-06 07:42 35.17118 -81.03072 7407 ft 228 kts 255°
2026-05-06 07:43 35.16696 -81.05005 7896 ft 243 kts 253°
2026-05-06 07:43 35.16195 -81.07027 8521 ft 251 kts 252°
2026-05-06 07:43 35.15651 -81.09067 9255 ft 255 kts 252°
2026-05-06 07:43 35.15069 -81.11132 9967 ft 258 kts 251°
2026-05-06 07:44 35.14456 -81.13240 10525 ft 268 kts 251°
2026-05-06 07:44 35.13793 -81.15438 10925 ft 282 kts 251°
2026-05-06 07:44 35.13089 -81.17740 11275 ft 297 kts 251°
2026-05-06 07:44 35.12364 -81.20125 11639 ft 310 kts 251°
2026-05-06 07:45 35.11592 -81.22665 12063 ft 320 kts 251°
2026-05-06 07:45 35.10812 -81.25231 12610 ft 325 kts 251°
2026-05-06 07:45 35.10035 -81.27803 13174 ft 329 kts 251°
2026-05-06 07:45 35.09232 -81.30435 13855 ft 330 kts 251°
2026-05-06 07:46 35.08437 -81.33072 14562 ft 331 kts 251°
2026-05-06 07:46 35.07639 -81.35720 15225 ft 333 kts 251°
2026-05-06 07:46 35.06833 -81.38385 15847 ft 335 kts 251°
2026-05-06 07:46 35.06015 -81.41057 16439 ft 337 kts 251°
2026-05-06 07:47 35.05185 -81.43745 17009 ft 339 kts 251°
2026-05-06 07:47 35.04329 -81.46442 17534 ft 342 kts 251°
2026-05-06 07:47 35.03454 -81.49148 18128 ft 342 kts 251°
2026-05-06 07:47 35.02554 -81.51843 18705 ft 344 kts 250°
2026-05-06 07:48 35.01648 -81.54553 19254 ft 345 kts 250°
2026-05-06 07:48 35.00741 -81.57269 19787 ft 347 kts 250°
2026-05-06 07:48 34.99845 -81.59968 20282 ft 349 kts 251°
2026-05-06 07:48 34.98932 -81.62728 20757 ft 351 kts 251°
2026-05-06 07:49 34.98015 -81.65506 21179 ft 354 kts 251°
2026-05-06 07:49 34.97090 -81.68309 21553 ft 358 kts 251°
2026-05-06 07:49 34.96154 -81.71154 21889 ft 363 kts 251°
2026-05-06 07:49 34.95208 -81.74034 22219 ft 368 kts 251°
2026-05-06 07:50 34.94247 -81.76946 22596 ft 371 kts 250°
2026-05-06 07:50 34.93213 -81.79797 22978 ft 375 kts 248°
2026-05-06 07:50 34.92003 -81.82626 23410 ft 379 kts 244°
2026-05-06 07:50 34.90635 -81.85388 23845 ft 383 kts 241°
2026-05-06 07:51 34.89155 -81.88108 24274 ft 386 kts 239°
2026-05-06 07:51 34.87614 -81.90797 24697 ft 389 kts 238°
2026-05-06 07:51 34.86047 -81.93486 25138 ft 390 kts 239°
2026-05-06 07:51 34.84475 -81.96193 25583 ft 391 kts 239°
2026-05-06 07:52 34.82913 -81.98918 26010 ft 392 kts 240°
2026-05-06 07:52 34.81358 -82.01658 26402 ft 393 kts 245°
2026-05-06 07:52 34.79817 -82.04393 26899 ft 391 kts 245°
2026-05-06 07:52 34.78287 -82.07104 27468 ft 387 kts 240°
2026-05-06 07:53 34.76786 -82.09771 27937 ft 386 kts 242°
2026-05-06 07:53 34.75273 -82.12484 28296 ft 388 kts 242°
2026-05-06 07:53 34.73751 -82.15216 28545 ft 393 kts 242°
2026-05-06 07:53 34.72200 -82.17998 28708 ft 400 kts 242°
2026-05-06 07:54 34.70625 -82.20820 28904 ft 406 kts 242°
2026-05-06 07:54 34.69031 -82.23668 29194 ft 409 kts 242°
2026-05-06 07:54 34.67422 -82.26530 29544 ft 410 kts 243°
2026-05-06 07:54 34.65804 -82.29391 29836 ft 413 kts 243°
2026-05-06 07:55 34.64176 -82.32289 30011 ft 418 kts 243°
2026-05-06 07:55 34.62519 -82.35222 30171 ft 424 kts 243°
2026-05-06 07:55 34.60849 -82.38186 30452 ft 425 kts 243°
2026-05-06 07:55 34.59206 -82.41108 30823 ft 424 kts 243°
2026-05-06 07:56 34.57539 -82.44059 31172 ft 424 kts 244°
2026-05-06 07:56 34.55859 -82.47015 31460 ft 425 kts 244°
2026-05-06 07:56 34.54173 -82.49968 31731 ft 427 kts 244°
2026-05-06 07:56 34.52478 -82.52926 32027 ft 427 kts 244°
2026-05-06 07:57 34.50785 -82.55877 32379 ft 425 kts 244°
2026-05-06 07:57 34.49109 -82.58831 32769 ft 423 kts 244°
2026-05-06 07:57 34.47452 -82.61765 33172 ft 420 kts 244°
2026-05-06 07:57 34.45803 -82.64684 33558 ft 418 kts 245°
2026-05-06 07:58 34.44161 -82.67584 33853 ft 417 kts 245°
2026-05-06 07:58 34.42517 -82.70482 34155 ft 416 kts 245°
2026-05-06 07:58 34.40875 -82.73365 34477 ft 415 kts 245°
2026-05-06 07:58 34.39256 -82.76195 34803 ft 413 kts 245°
2026-05-06 07:59 34.37595 -82.79078 35181 ft 410 kts 245°
2026-05-06 07:59 34.35975 -82.81863 35519 ft 408 kts 245°
2026-05-06 07:59 34.34345 -82.84669 35771 ft 408 kts 245°
2026-05-06 07:59 34.32727 -82.87490 35916 ft 408 kts 245°
2026-05-06 08:00 34.29505 -82.93114 36005 ft 405 kts 245°
2026-05-06 08:00 34.26291 -82.98688 36005 ft 402 kts 245°
2026-05-06 08:01 34.23101 -83.04225 36004 ft 400 kts 245°
2026-05-06 08:01 34.19900 -83.09746 36006 ft 401 kts 245°
2026-05-06 08:02 34.16704 -83.15246 36005 ft 402 kts 245°
2026-05-06 08:02 34.13495 -83.20776 36003 ft 402 kts 245°
2026-05-06 08:03 34.10285 -83.26318 36000 ft 403 kts 245°
2026-05-06 08:03 34.07080 -83.31859 36001 ft 402 kts 245°
2026-05-06 08:04 34.03893 -83.37372 36016 ft 399 kts 245°
2026-05-06 08:04 34.00742 -83.42820 36019 ft 398 kts 245°
2026-05-06 08:05 33.97544 -83.48273 36007 ft 397 kts 245°
2026-05-06 08:05 33.94365 -83.53721 36004 ft 397 kts 245°
2026-05-06 08:06 33.91184 -83.59149 36007 ft 396 kts 245°
2026-05-06 08:06 33.88003 -83.64569 36009 ft 396 kts 245°
2026-05-06 08:07 33.85142 -83.70157 36009 ft 387 kts 251°
2026-05-06 08:07 33.83090 -83.76049 36016 ft 382 kts 258°
2026-05-06 08:08 33.81400 -83.82082 36012 ft 379 kts 259°
2026-05-06 08:08 33.79706 -83.88083 36011 ft 378 kts 258°
2026-05-06 08:09 33.77924 -83.94037 36016 ft 378 kts 258°
2026-05-06 08:09 33.76116 -83.99967 36019 ft 378 kts 258°
2026-05-06 08:10 33.74303 -84.05892 36020 ft 377 kts 257°
2026-05-06 08:10 33.72488 -84.11826 36020 ft 379 kts 257°
2026-05-06 08:11 33.70658 -84.17788 36020 ft 381 kts 257°
2026-05-06 08:11 33.68820 -84.23765 36018 ft 382 kts 257°
2026-05-06 08:12 33.66988 -84.29723 36018 ft 382 kts 257°
2026-05-06 08:12 33.65152 -84.35702 36016 ft 381 kts 257°
2026-05-06 08:13 33.63670 -84.40720 36011 ft 378 kts 259°
2026-05-06 08:13 33.62740 -84.46806 36011 ft 370 kts 270°
2026-05-06 08:14 33.62788 -84.52942 36017 ft 367 kts 276°
2026-05-06 08:14 33.63141 -84.59050 36012 ft 367 kts 276°
2026-05-06 08:15 33.63408 -84.65170 36000 ft 367 kts 275°
2026-05-06 08:15 33.63565 -84.71295 35996 ft 367 kts 274°
2026-05-06 08:16 33.63689 -84.77394 36003 ft 367 kts 274°
2026-05-06 08:16 33.63825 -84.83517 36006 ft 367 kts 274°
2026-05-06 08:17 33.63974 -84.89631 36003 ft 366 kts 274°
2026-05-06 08:17 33.64130 -84.95744 36003 ft 366 kts 274°
2026-05-06 08:18 33.64266 -85.01852 36007 ft 366 kts 274°
2026-05-06 08:18 33.64391 -85.07974 36004 ft 366 kts 274°
2026-05-06 08:19 33.64513 -85.14045 35985 ft 366 kts 274°
2026-05-06 08:19 33.64634 -85.20159 35983 ft 366 kts 274°
2026-05-06 08:20 33.64750 -85.26271 35989 ft 366 kts 274°
2026-05-06 08:20 33.64865 -85.32389 35985 ft 366 kts 274°
2026-05-06 08:21 33.64975 -85.38503 35973 ft 367 kts 274°
2026-05-06 08:21 33.65085 -85.44621 35973 ft 366 kts 274°
2026-05-06 08:22 33.65198 -85.50703 35975 ft 366 kts 274°
2026-05-06 08:22 33.65327 -85.56858 35973 ft 371 kts 274°
2026-05-06 08:23 33.65458 -85.63056 35965 ft 370 kts 274°
2026-05-06 08:23 33.65555 -85.69229 35964 ft 368 kts 274°
2026-05-06 08:24 33.65648 -85.75333 35964 ft 368 kts 274°
2026-05-06 08:24 33.65735 -85.81465 35964 ft 367 kts 273°
2026-05-06 08:25 33.65809 -85.87592 35964 ft 367 kts 273°
2026-05-06 08:25 33.65894 -85.93713 35964 ft 366 kts 273°
2026-05-06 08:26 33.65974 -85.99840 35965 ft 366 kts 273°
2026-05-06 08:26 33.66053 -86.05925 35966 ft 366 kts 273°
2026-05-06 08:27 33.66131 -86.12038 35967 ft 366 kts 273°
2026-05-06 08:27 33.66211 -86.18149 35968 ft 366 kts 273°
2026-05-06 08:28 33.66297 -86.24254 35967 ft 366 kts 273°
2026-05-06 08:28 33.66388 -86.30345 35969 ft 366 kts 273°
2026-05-06 08:29 33.66478 -86.36465 35971 ft 367 kts 273°
2026-05-06 08:29 33.66537 -86.42598 35974 ft 367 kts 273°
2026-05-06 08:30 33.66593 -86.48728 35975 ft 367 kts 273°
2026-05-06 08:30 33.66646 -86.54863 35976 ft 367 kts 273°
2026-05-06 08:31 33.66696 -86.60955 35979 ft 367 kts 273°
2026-05-06 08:31 33.66744 -86.67102 35985 ft 368 kts 273°
2026-05-06 08:32 33.66788 -86.73244 35984 ft 368 kts 273°
2026-05-06 08:32 33.66831 -86.79359 35978 ft 368 kts 272°
2026-05-06 08:33 33.66877 -86.85509 35981 ft 368 kts 272°
2026-05-06 08:33 33.66730 -86.91670 35989 ft 370 kts 269°
2026-05-06 08:34 33.65813 -87.00908 35974 ft 372 kts 265°
2026-05-06 08:35 33.65080 -87.07052 35971 ft 372 kts 266°
2026-05-06 08:35 33.64375 -87.13161 35979 ft 372 kts 266°
2026-05-06 08:36 33.63696 -87.19315 35978 ft 372 kts 266°
2026-05-06 08:36 33.63010 -87.25472 35959 ft 372 kts 266°
2026-05-06 08:37 33.62325 -87.31624 35961 ft 372 kts 266°
2026-05-06 08:37 33.61649 -87.37780 35964 ft 373 kts 266°
2026-05-06 08:38 33.60975 -87.43966 35959 ft 377 kts 266°
2026-05-06 08:38 33.60295 -87.50178 35935 ft 374 kts 266°
2026-05-06 08:39 33.59591 -87.56365 35939 ft 373 kts 266°
2026-05-06 08:39 33.58885 -87.62528 35946 ft 373 kts 266°
2026-05-06 08:40 33.58180 -87.68663 35920 ft 373 kts 266°
2026-05-06 08:40 33.57469 -87.74812 35904 ft 372 kts 266°
2026-05-06 08:41 33.56755 -87.80953 35933 ft 372 kts 265°
2026-05-06 08:41 33.56055 -87.87098 35943 ft 372 kts 265°
2026-05-06 08:42 33.55362 -87.93259 35917 ft 372 kts 265°
2026-05-06 08:42 33.54650 -87.99416 35903 ft 372 kts 265°
2026-05-06 08:43 33.53930 -88.05521 35907 ft 372 kts 265°
2026-05-06 08:43 33.53202 -88.11658 35909 ft 372 kts 265°
2026-05-06 08:44 33.52471 -88.17797 35886 ft 372 kts 265°
2026-05-06 08:44 33.51736 -88.23948 35877 ft 372 kts 265°
2026-05-06 08:45 33.50998 -88.30079 35882 ft 371 kts 265°
2026-05-06 08:45 33.50265 -88.36155 35883 ft 369 kts 265°
2026-05-06 08:46 33.49528 -88.42246 35878 ft 369 kts 265°
2026-05-06 08:46 33.48807 -88.48323 35880 ft 368 kts 266°
2026-05-06 08:47 33.48394 -88.54411 35895 ft 366 kts 270°
2026-05-06 08:47 33.48328 -88.60471 35895 ft 365 kts 272°
2026-05-06 08:48 33.48357 -88.66556 35893 ft 365 kts 272°
2026-05-06 08:48 33.48348 -88.72655 35894 ft 365 kts 271°
2026-05-06 08:49 33.48312 -88.78737 35897 ft 365 kts 271°
2026-05-06 08:49 33.48272 -88.84785 35895 ft 364 kts 271°
2026-05-06 08:50 33.48218 -88.90842 35892 ft 363 kts 271°
2026-05-06 08:50 33.48160 -88.96891 35895 ft 362 kts 271°
2026-05-06 08:51 33.48100 -89.02927 35897 ft 362 kts 271°
2026-05-06 08:51 33.48036 -89.08954 35896 ft 362 kts 271°
2026-05-06 08:52 33.47970 -89.14945 35896 ft 362 kts 271°
2026-05-06 08:52 33.47902 -89.20977 35893 ft 364 kts 271°
2026-05-06 08:53 33.47839 -89.27126 35909 ft 371 kts 271°
2026-05-06 08:53 33.47776 -89.33275 35900 ft 367 kts 270°
2026-05-06 08:54 33.47720 -89.39359 35899 ft 364 kts 270°
2026-05-06 08:54 33.47634 -89.45383 35903 ft 363 kts 270°
2026-05-06 08:55 33.47550 -89.51466 35905 ft 363 kts 270°
2026-05-06 08:55 33.47463 -89.57470 35902 ft 362 kts 270°
2026-05-06 08:56 33.47373 -89.63503 35902 ft 362 kts 270°
2026-05-06 08:56 33.47280 -89.69535 35907 ft 362 kts 270°
2026-05-06 08:57 33.47186 -89.75566 35910 ft 362 kts 270°
2026-05-06 08:57 33.47105 -89.81594 35901 ft 361 kts 270°
2026-05-06 08:58 33.47043 -89.87616 35900 ft 360 kts 270°
2026-05-06 08:58 33.46941 -89.93580 35901 ft 360 kts 269°
2026-05-06 08:59 33.46834 -89.99574 35892 ft 360 kts 269°
2026-05-06 08:59 33.46744 -90.04570 35860 ft 361 kts 269°
2026-05-06 09:00 33.46630 -90.10583 35846 ft 361 kts 269°
2026-05-06 09:00 33.46516 -90.16581 35845 ft 360 kts 269°
2026-05-06 09:01 33.46397 -90.22585 35845 ft 360 kts 269°
2026-05-06 09:01 33.46219 -90.28576 35841 ft 360 kts 268°
2026-05-06 09:02 33.45857 -90.34534 35841 ft 361 kts 266°
2026-05-06 09:02 33.45382 -90.40517 35841 ft 361 kts 266°
2026-05-06 09:03 33.44931 -90.46508 35839 ft 361 kts 266°
2026-05-06 09:03 33.44472 -90.52468 35827 ft 361 kts 266°
2026-05-06 09:04 33.44009 -90.58460 35825 ft 361 kts 266°
2026-05-06 09:04 33.43542 -90.64453 35827 ft 361 kts 266°
2026-05-06 09:05 33.43073 -90.70444 35826 ft 361 kts 266°
2026-05-06 09:05 33.42601 -90.76431 35819 ft 361 kts 265°
2026-05-06 09:06 33.42137 -90.82375 35817 ft 360 kts 266°
2026-05-06 09:06 33.41677 -90.88339 35817 ft 359 kts 266°
2026-05-06 09:07 33.41224 -90.94276 35817 ft 358 kts 266°
2026-05-06 09:07 33.40751 -91.00211 35821 ft 358 kts 265°
2026-05-06 09:08 33.40270 -91.06157 35844 ft 359 kts 265°
2026-05-06 09:08 33.39784 -91.12094 35846 ft 358 kts 265°
2026-05-06 09:09 33.39297 -91.18020 35848 ft 358 kts 265°
2026-05-06 09:09 33.38807 -91.23945 35847 ft 357 kts 265°
2026-05-06 09:10 33.38317 -91.29825 35848 ft 357 kts 265°
2026-05-06 09:10 33.37822 -91.35745 35849 ft 357 kts 265°
2026-05-06 09:11 33.37324 -91.41656 35849 ft 357 kts 265°
2026-05-06 09:11 33.36824 -91.47567 35846 ft 357 kts 265°
2026-05-06 09:12 33.36319 -91.53495 35846 ft 357 kts 265°
2026-05-06 09:12 33.35812 -91.59415 35846 ft 357 kts 265°
2026-05-06 09:13 33.35310 -91.65290 35846 ft 357 kts 265°
2026-05-06 09:13 33.34808 -91.71204 35845 ft 357 kts 265°
2026-05-06 09:14 33.34311 -91.77120 35845 ft 357 kts 265°
2026-05-06 09:14 33.33817 -91.83044 35845 ft 357 kts 265°
2026-05-06 09:15 33.33329 -91.88920 35844 ft 357 kts 265°
2026-05-06 09:15 33.32806 -91.94831 35841 ft 357 kts 265°
2026-05-06 09:16 33.32278 -92.00749 35840 ft 358 kts 265°
2026-05-06 09:16 33.31749 -92.06667 35841 ft 358 kts 265°
2026-05-06 09:17 33.31220 -92.12543 35840 ft 357 kts 265°
2026-05-06 09:17 33.30685 -92.18458 35836 ft 358 kts 265°
2026-05-06 09:18 33.30148 -92.24369 35837 ft 358 kts 265°
2026-05-06 09:18 33.29606 -92.30284 35838 ft 358 kts 265°
2026-05-06 09:19 33.29063 -92.36192 35836 ft 358 kts 265°
2026-05-06 09:19 33.28517 -92.42104 35835 ft 358 kts 265°
2026-05-06 09:20 33.27971 -92.47985 35836 ft 358 kts 265°
2026-05-06 09:20 33.27423 -92.53901 35837 ft 358 kts 265°
2026-05-06 09:21 33.26879 -92.59812 35838 ft 358 kts 265°
2026-05-06 09:21 33.26339 -92.65723 35838 ft 358 kts 265°
2026-05-06 09:22 33.25808 -92.71603 35840 ft 358 kts 265°
2026-05-06 09:22 33.25337 -92.77532 35836 ft 359 kts 267°
2026-05-06 09:23 33.24938 -92.83521 35844 ft 362 kts 266°
2026-05-06 09:23 33.24540 -92.89505 35838 ft 360 kts 266°
2026-05-06 09:24 33.24139 -92.95457 35840 ft 359 kts 266°
2026-05-06 09:24 33.23743 -93.01360 35841 ft 358 kts 266°
2026-05-06 09:25 33.23348 -93.07298 35838 ft 358 kts 266°
2026-05-06 09:25 33.22958 -93.13224 35836 ft 358 kts 266°
2026-05-06 09:26 33.22553 -93.19158 35838 ft 359 kts 266°
2026-05-06 09:26 33.22140 -93.25125 35840 ft 361 kts 266°
2026-05-06 09:27 33.21730 -93.31066 35841 ft 361 kts 266°
2026-05-06 09:27 33.21321 -93.37056 35841 ft 361 kts 266°
2026-05-06 09:28 33.20916 -93.43043 35843 ft 361 kts 266°
2026-05-06 09:28 33.20515 -93.49037 35844 ft 362 kts 266°
2026-05-06 09:29 33.20092 -93.54991 35845 ft 362 kts 266°
2026-05-06 09:29 33.19659 -93.60981 35845 ft 362 kts 266°
2026-05-06 09:30 33.19222 -93.66965 35845 ft 362 kts 266°
2026-05-06 09:30 33.18783 -93.72959 35845 ft 362 kts 266°
2026-05-06 09:31 33.18343 -93.78916 35845 ft 362 kts 266°
2026-05-06 09:31 33.17898 -93.84903 35845 ft 362 kts 266°
2026-05-06 09:32 33.17450 -93.90887 35845 ft 362 kts 266°
2026-05-06 09:32 33.16999 -93.96869 35845 ft 362 kts 266°
2026-05-06 09:33 33.16546 -94.02851 35845 ft 362 kts 266°
2026-05-06 09:33 33.16093 -94.08790 35845 ft 362 kts 266°
2026-05-06 09:34 33.15635 -94.14772 35845 ft 362 kts 266°
2026-05-06 09:34 33.15179 -94.20751 35845 ft 362 kts 266°
2026-05-06 09:35 33.14727 -94.26729 35845 ft 362 kts 266°
2026-05-06 09:35 33.14279 -94.32710 35845 ft 362 kts 266°
2026-05-06 09:36 33.13835 -94.38692 35845 ft 362 kts 266°
2026-05-06 09:36 33.13384 -94.44625 35846 ft 362 kts 266°
2026-05-06 09:37 33.12908 -94.50600 35859 ft 362 kts 266°
2026-05-06 09:37 33.12429 -94.56578 35855 ft 363 kts 266°
2026-05-06 09:38 33.11941 -94.62614 35863 ft 366 kts 266°
2026-05-06 09:38 33.11452 -94.68643 35865 ft 364 kts 266°
2026-05-06 09:39 33.10963 -94.74639 35884 ft 363 kts 266°
2026-05-06 09:39 33.10472 -94.80627 35887 ft 362 kts 266°
2026-05-06 09:40 33.09982 -94.86561 35884 ft 362 kts 266°
2026-05-06 09:40 33.09234 -94.95537 35892 ft 362 kts 266°
2026-05-06 09:41 33.08744 -95.01480 35896 ft 362 kts 263°
2026-05-06 09:41 33.08277 -95.07439 35892 ft 359 kts 264°
2026-05-06 09:42 33.07822 -95.13357 35892 ft 358 kts 264°
2026-05-06 09:42 33.07322 -95.19260 35900 ft 357 kts 263°
2026-05-06 09:43 33.06820 -95.25112 35904 ft 357 kts 263°
2026-05-06 09:43 33.06310 -95.30992 35903 ft 356 kts 263°
2026-05-06 09:44 33.05803 -95.36868 35902 ft 356 kts 263°
2026-05-06 09:44 33.05304 -95.42734 35904 ft 356 kts 263°
2026-05-06 09:45 33.04808 -95.48609 35904 ft 356 kts 263°
2026-05-06 09:45 33.04321 -95.54440 35901 ft 356 kts 263°
2026-05-06 09:46 33.03807 -95.60304 35900 ft 355 kts 263°
2026-05-06 09:46 33.03369 -95.65214 35901 ft 355 kts 263°
2026-05-06 09:47 33.02760 -95.72020 35902 ft 355 kts 263°
2026-05-06 09:47 33.02322 -95.76888 35901 ft 355 kts 263°
2026-05-06 09:48 33.01795 -95.82706 35900 ft 355 kts 262°
2026-05-06 09:48 33.01262 -95.88563 35901 ft 355 kts 262°
2026-05-06 09:49 33.00732 -95.94411 35902 ft 355 kts 262°
2026-05-06 09:49 33.00207 -96.00254 35903 ft 355 kts 262°
2026-05-06 09:50 32.99683 -96.06110 35899 ft 355 kts 262°
2026-05-06 09:50 32.99164 -96.11965 35899 ft 355 kts 262°
2026-05-06 09:51 32.98628 -96.17764 35899 ft 355 kts 262°
2026-05-06 09:51 32.98081 -96.23602 35896 ft 355 kts 262°
2026-05-06 09:52 32.97530 -96.29436 35894 ft 355 kts 261°
2026-05-06 09:52 32.96976 -96.35300 35892 ft 359 kts 264°
2026-05-06 09:53 32.96406 -96.41276 35902 ft 363 kts 261°
2026-05-06 09:53 32.95860 -96.47220 35897 ft 359 kts 262°
2026-05-06 09:54 32.95311 -96.53116 35899 ft 357 kts 261°
2026-05-06 09:54 32.94746 -96.58949 35902 ft 356 kts 261°
2026-05-06 09:55 32.94177 -96.64815 35904 ft 356 kts 261°
2026-05-06 09:55 32.93606 -96.70668 35904 ft 356 kts 261°
2026-05-06 09:56 32.93031 -96.76523 35904 ft 355 kts 261°
2026-05-06 09:56 32.92463 -96.82337 35906 ft 356 kts 261°
2026-05-06 09:57 32.91893 -96.88188 35907 ft 356 kts 261°
2026-05-06 09:57 32.91327 -96.94044 35908 ft 356 kts 261°
2026-05-06 09:58 32.90757 -96.99905 35910 ft 357 kts 261°
2026-05-06 09:58 32.90187 -97.05734 35915 ft 356 kts 261°
2026-05-06 09:59 32.89596 -97.11590 35918 ft 356 kts 261°
2026-05-06 09:59 32.88969 -97.17438 35917 ft 356 kts 260°
2026-05-06 10:00 32.88210 -97.23259 35917 ft 355 kts 258°
2026-05-06 10:00 32.87370 -97.29049 35922 ft 355 kts 258°
2026-05-06 10:01 32.86528 -97.34839 35921 ft 355 kts 258°
2026-05-06 10:01 32.85696 -97.40645 35918 ft 355 kts 258°
2026-05-06 10:02 32.84878 -97.46400 35917 ft 355 kts 258°
2026-05-06 10:02 32.84058 -97.52195 35919 ft 355 kts 258°
2026-05-06 10:03 32.83243 -97.57995 35920 ft 355 kts 258°
2026-05-06 10:03 32.82416 -97.63788 35921 ft 355 kts 258°
2026-05-06 10:04 32.81573 -97.69572 35921 ft 355 kts 258°
2026-05-06 10:04 32.80731 -97.75329 35923 ft 355 kts 258°
2026-05-06 10:05 32.79882 -97.81113 35927 ft 355 kts 258°
2026-05-06 10:05 32.79033 -97.86884 35929 ft 355 kts 258°
2026-05-06 10:06 32.78179 -97.92664 35930 ft 354 kts 258°
2026-05-06 10:06 32.77324 -97.98436 35933 ft 355 kts 258°
2026-05-06 10:07 32.76464 -98.04217 35934 ft 355 kts 258°
2026-05-06 10:07 32.75601 -98.10007 35937 ft 357 kts 258°
2026-05-06 10:08 32.74738 -98.15774 35935 ft 356 kts 257°
2026-05-06 10:08 32.73886 -98.21569 35936 ft 356 kts 258°
2026-05-06 10:09 32.73044 -98.27381 35938 ft 357 kts 257°
2026-05-06 10:09 32.72178 -98.33194 35938 ft 357 kts 257°
2026-05-06 10:10 32.71296 -98.39001 35940 ft 357 kts 257°
2026-05-06 10:10 32.70413 -98.44812 35941 ft 357 kts 257°
2026-05-06 10:11 32.69532 -98.50616 35942 ft 357 kts 257°
2026-05-06 10:11 32.68653 -98.56436 35942 ft 358 kts 257°
2026-05-06 10:12 32.67777 -98.62252 35942 ft 358 kts 257°
2026-05-06 10:12 32.66898 -98.68063 35943 ft 358 kts 257°
2026-05-06 10:13 32.66005 -98.73835 35948 ft 358 kts 257°
2026-05-06 10:13 32.65099 -98.79632 35950 ft 357 kts 256°
2026-05-06 10:14 32.64187 -98.85432 35948 ft 357 kts 256°
2026-05-06 10:14 32.63282 -98.91234 35947 ft 357 kts 256°
2026-05-06 10:15 32.62375 -98.97032 35950 ft 357 kts 256°
2026-05-06 10:15 32.61464 -99.02832 35950 ft 357 kts 256°
2026-05-06 10:16 32.60556 -99.08630 35949 ft 357 kts 256°
2026-05-06 10:16 32.59648 -99.14393 35951 ft 357 kts 256°
2026-05-06 10:17 32.58731 -99.20186 35957 ft 357 kts 256°
2026-05-06 10:17 32.57817 -99.25980 35958 ft 357 kts 256°
2026-05-06 10:18 32.56910 -99.31780 35958 ft 357 kts 256°
2026-05-06 10:18 32.56028 -99.37527 35958 ft 356 kts 256°
2026-05-06 10:19 32.55100 -99.43287 35964 ft 355 kts 256°
2026-05-06 10:19 32.54174 -99.49047 35965 ft 355 kts 256°
2026-05-06 10:20 32.53246 -99.54795 35964 ft 355 kts 256°
2026-05-06 10:20 32.52316 -99.60543 35964 ft 355 kts 256°
2026-05-06 10:21 32.51382 -99.66292 35964 ft 355 kts 256°
2026-05-06 10:21 32.50453 -99.71998 35964 ft 355 kts 256°
2026-05-06 10:22 32.49515 -99.77741 35963 ft 355 kts 256°
2026-05-06 10:22 32.48589 -99.83501 35959 ft 359 kts 261°
2026-05-06 10:23 32.47923 -99.89417 35971 ft 363 kts 260°
2026-05-06 10:23 32.47596 -99.95363 35965 ft 360 kts 262°
2026-05-06 10:24 32.47355 -100.01236 35964 ft 359 kts 262°
2026-05-06 10:24 32.47074 -100.07126 35964 ft 357 kts 261°
2026-05-06 10:25 32.46743 -100.12993 35973 ft 357 kts 261°
2026-05-06 10:25 32.46416 -100.18846 35976 ft 356 kts 261°
2026-05-06 10:26 32.46086 -100.24706 35976 ft 356 kts 261°
2026-05-06 10:26 32.45758 -100.30562 35977 ft 356 kts 262°
2026-05-06 10:27 32.45448 -100.36345 35986 ft 353 kts 261°
2026-05-06 10:27 32.45114 -100.42127 35989 ft 351 kts 261°
2026-05-06 10:28 32.44778 -100.47899 35990 ft 351 kts 261°
2026-05-06 10:28 32.44440 -100.53659 35990 ft 350 kts 261°
2026-05-06 10:29 32.44100 -100.59406 35991 ft 350 kts 261°
2026-05-06 10:29 32.43758 -100.65155 35992 ft 350 kts 261°
2026-05-06 10:30 32.43413 -100.70898 35991 ft 350 kts 261°
2026-05-06 10:30 32.43068 -100.76610 35991 ft 350 kts 261°
2026-05-06 10:31 32.42732 -100.82353 35991 ft 349 kts 261°
2026-05-06 10:31 32.42382 -100.88069 35991 ft 348 kts 261°
2026-05-06 10:32 32.42028 -100.93776 35991 ft 347 kts 261°
2026-05-06 10:32 32.41736 -100.98517 35991 ft 347 kts 261°
2026-05-06 10:33 32.41387 -101.04222 35990 ft 347 kts 261°
2026-05-06 10:33 32.41042 -101.09915 35990 ft 347 kts 261°
2026-05-06 10:34 32.40699 -101.15617 35990 ft 347 kts 261°
2026-05-06 10:34 32.40362 -101.21283 35989 ft 347 kts 261°
2026-05-06 10:35 32.40003 -101.26977 35987 ft 347 kts 261°
2026-05-06 10:35 32.39643 -101.32665 35985 ft 346 kts 261°
2026-05-06 10:36 32.39280 -101.38294 35982 ft 344 kts 261°
2026-05-06 10:36 32.38908 -101.43943 35978 ft 344 kts 261°
2026-05-06 10:37 32.38435 -101.49543 35974 ft 343 kts 259°
2026-05-06 10:37 32.37774 -101.55135 35959 ft 346 kts 260°
2026-05-06 10:38 32.37044 -101.60833 35971 ft 352 kts 258°
2026-05-06 10:38 32.36331 -101.66514 35961 ft 346 kts 258°
2026-05-06 10:39 32.35620 -101.72130 35959 ft 344 kts 258°
2026-05-06 10:39 32.34910 -101.77725 35951 ft 343 kts 258°
2026-05-06 10:40 32.34186 -101.83303 35950 ft 343 kts 258°
2026-05-06 10:40 32.33474 -101.88843 35952 ft 343 kts 258°
2026-05-06 10:41 32.32759 -101.94415 35952 ft 343 kts 258°
2026-05-06 10:41 32.32043 -101.99999 35950 ft 343 kts 258°
2026-05-06 10:42 32.31321 -102.05573 35950 ft 343 kts 258°
2026-05-06 10:42 32.30600 -102.11147 35952 ft 343 kts 258°
2026-05-06 10:43 32.29884 -102.16688 35953 ft 343 kts 258°
2026-05-06 10:44 32.28810 -102.25055 35948 ft 343 kts 258°
2026-05-06 10:44 32.28097 -102.30639 35946 ft 343 kts 258°
2026-05-06 10:45 32.27381 -102.36224 35945 ft 345 kts 257°
2026-05-06 10:45 32.26644 -102.41800 35944 ft 346 kts 257°
2026-05-06 10:46 32.25899 -102.47420 35940 ft 347 kts 257°
2026-05-06 10:46 32.25149 -102.53049 35937 ft 347 kts 257°
2026-05-06 10:47 32.24402 -102.58687 35935 ft 347 kts 258°
2026-05-06 10:47 32.23659 -102.64324 35936 ft 347 kts 257°
2026-05-06 10:48 32.22901 -102.69957 35942 ft 347 kts 257°
2026-05-06 10:48 32.22139 -102.75599 35943 ft 347 kts 257°
2026-05-06 10:49 32.21377 -102.81233 35941 ft 347 kts 257°
2026-05-06 10:49 32.20623 -102.86837 35941 ft 347 kts 257°
2026-05-06 10:50 32.19868 -102.92466 35945 ft 347 kts 257°
2026-05-06 10:50 32.19118 -102.98094 35948 ft 347 kts 257°
2026-05-06 10:51 32.18364 -103.03723 35944 ft 347 kts 257°
2026-05-06 10:51 32.17589 -103.09355 35942 ft 347 kts 257°
2026-05-06 10:52 32.16816 -103.14943 35947 ft 347 kts 257°
2026-05-06 10:52 32.16037 -103.20568 35938 ft 347 kts 258°
2026-05-06 10:53 32.15240 -103.26263 35944 ft 358 kts 257°
2026-05-06 10:53 32.14418 -103.32092 35942 ft 359 kts 256°
2026-05-06 10:54 32.13618 -103.37862 35939 ft 354 kts 256°
2026-05-06 10:54 32.12838 -103.43553 35943 ft 352 kts 256°
2026-05-06 10:55 32.12057 -103.49260 35942 ft 351 kts 256°
2026-05-06 10:55 32.11250 -103.54960 35939 ft 351 kts 256°
2026-05-06 10:56 32.10449 -103.60605 35941 ft 351 kts 256°
2026-05-06 10:56 32.09640 -103.66280 35946 ft 350 kts 256°
2026-05-06 10:57 32.08830 -103.71953 35946 ft 350 kts 256°
2026-05-06 10:57 32.08016 -103.77624 35944 ft 350 kts 256°
2026-05-06 10:58 32.07212 -103.83285 35949 ft 350 kts 256°
2026-05-06 10:58 32.06417 -103.88953 35959 ft 350 kts 255°
2026-05-06 10:58 32.06005 -103.91806 35708 ft 356 kts 255°
2026-05-06 10:59 32.05588 -103.94696 35320 ft 358 kts 255°
2026-05-06 10:59 32.05169 -103.97582 34922 ft 356 kts 255°
2026-05-06 10:59 32.04755 -104.00424 34526 ft 356 kts 255°
2026-05-06 10:59 32.04332 -104.03303 34126 ft 356 kts 255°
2026-05-06 11:00 32.03912 -104.06179 33726 ft 356 kts 255°
2026-05-06 11:00 32.03490 -104.09058 33326 ft 357 kts 255°
2026-05-06 11:00 32.03067 -104.11946 32927 ft 358 kts 255°
2026-05-06 11:00 32.02642 -104.14841 32527 ft 359 kts 255°
2026-05-06 11:01 32.02216 -104.17741 32128 ft 360 kts 255°
2026-05-06 11:01 32.01785 -104.20654 31729 ft 361 kts 255°
2026-05-06 11:01 32.01356 -104.23582 31329 ft 363 kts 255°
2026-05-06 11:01 32.00922 -104.26517 30930 ft 364 kts 255°
2026-05-06 11:02 32.00492 -104.29465 30519 ft 366 kts 255°
2026-05-06 11:02 32.00059 -104.32435 30096 ft 369 kts 255°
2026-05-06 11:02 31.99625 -104.35391 29677 ft 370 kts 255°
2026-05-06 11:02 31.99200 -104.38373 29251 ft 367 kts 256°
2026-05-06 11:03 31.98823 -104.41320 28826 ft 361 kts 257°
2026-05-06 11:03 31.98499 -104.44225 28414 ft 352 kts 257°
2026-05-06 11:03 31.98212 -104.47055 28008 ft 341 kts 258°
2026-05-06 11:03 31.97951 -104.49782 27614 ft 328 kts 258°
2026-05-06 11:04 31.97709 -104.52364 27238 ft 315 kts 258°
2026-05-06 11:04 31.97459 -104.54881 26875 ft 303 kts 257°
2026-05-06 11:04 31.97212 -104.57297 26525 ft 291 kts 257°
2026-05-06 11:04 31.96971 -104.59626 26191 ft 281 kts 257°
2026-05-06 11:05 31.96738 -104.61879 25866 ft 274 kts 257°
2026-05-06 11:05 31.96507 -104.64095 25559 ft 271 kts 257°
2026-05-06 11:05 31.96277 -104.66291 25257 ft 271 kts 257°
2026-05-06 11:05 31.96048 -104.68506 24957 ft 275 kts 258°
2026-05-06 11:06 31.95819 -104.70786 24648 ft 287 kts 258°
2026-05-06 11:06 31.95580 -104.73147 24329 ft 298 kts 258°
2026-05-06 11:06 31.95329 -104.75580 23986 ft 300 kts 258°
2026-05-06 11:06 31.95079 -104.78024 23637 ft 298 kts 258°
2026-05-06 11:07 31.94834 -104.80434 23286 ft 294 kts 258°
2026-05-06 11:07 31.94582 -104.82792 22935 ft 286 kts 257°
2026-05-06 11:07 31.94332 -104.85075 22600 ft 276 kts 257°
2026-05-06 11:07 31.94103 -104.87269 22270 ft 265 kts 257°
2026-05-06 11:08 31.93883 -104.89394 21953 ft 257 kts 257°
2026-05-06 11:08 31.93668 -104.91467 21647 ft 252 kts 257°
2026-05-06 11:08 31.93458 -104.93484 21348 ft 252 kts 257°
2026-05-06 11:08 31.93242 -104.95538 21048 ft 255 kts 257°
2026-05-06 11:09 31.93018 -104.97636 20748 ft 262 kts 257°
2026-05-06 11:09 31.92776 -104.99823 20531 ft 275 kts 257°
2026-05-06 11:09 31.92523 -105.02106 20487 ft 286 kts 258°
2026-05-06 11:09 31.92280 -105.04431 20461 ft 286 kts 258°
2026-05-06 11:10 31.92042 -105.06732 20433 ft 279 kts 258°
2026-05-06 11:10 31.91802 -105.08975 20410 ft 273 kts 257°
2026-05-06 11:10 31.91562 -105.11187 20395 ft 273 kts 257°
2026-05-06 11:10 31.91320 -105.13406 20375 ft 281 kts 258°
2026-05-06 11:11 31.91078 -105.15724 20354 ft 286 kts 258°
2026-05-06 11:11 31.90836 -105.18032 20327 ft 281 kts 258°
2026-05-06 11:11 31.90592 -105.20294 20300 ft 276 kts 257°
2026-05-06 11:11 31.90347 -105.22526 20273 ft 275 kts 257°
2026-05-06 11:12 31.90102 -105.24774 20193 ft 282 kts 258°
2026-05-06 11:12 31.89858 -105.27088 20063 ft 286 kts 258°
2026-05-06 11:12 31.89614 -105.29392 20003 ft 280 kts 258°
2026-05-06 11:12 31.89377 -105.31635 19986 ft 271 kts 258°
2026-05-06 11:13 31.89150 -105.33808 19983 ft 264 kts 258°
2026-05-06 11:13 31.88932 -105.35918 19984 ft 263 kts 258°
2026-05-06 11:13 31.88706 -105.38086 19988 ft 272 kts 258°
2026-05-06 11:13 31.88465 -105.40341 19990 ft 281 kts 258°
2026-05-06 11:14 31.88221 -105.42612 19988 ft 277 kts 258°
2026-05-06 11:14 31.87978 -105.44839 19902 ft 275 kts 258°
2026-05-06 11:14 31.87778 -105.47128 19441 ft 286 kts 260°
2026-05-06 11:14 31.87644 -105.49493 18950 ft 292 kts 262°
2026-05-06 11:15 31.87566 -105.51900 18450 ft 294 kts 263°
2026-05-06 11:15 31.87526 -105.54310 17935 ft 292 kts 264°
2026-05-06 11:15 31.87505 -105.56656 17438 ft 288 kts 264°
2026-05-06 11:15 31.87492 -105.59004 16936 ft 285 kts 264°
2026-05-06 11:16 31.87485 -105.61322 16435 ft 282 kts 264°
2026-05-06 11:16 31.87480 -105.63622 15934 ft 280 kts 264°
2026-05-06 11:16 31.87476 -105.65909 15433 ft 279 kts 264°
2026-05-06 11:16 31.87462 -105.68184 14937 ft 277 kts 264°
2026-05-06 11:17 31.87444 -105.70445 14460 ft 276 kts 264°
2026-05-06 11:17 31.87430 -105.72698 13984 ft 275 kts 264°
2026-05-06 11:17 31.87418 -105.74940 13506 ft 274 kts 265°
2026-05-06 11:17 31.87398 -105.77174 13009 ft 273 kts 265°
2026-05-06 11:18 31.87379 -105.79411 12508 ft 273 kts 265°
2026-05-06 11:18 31.87358 -105.81643 12008 ft 272 kts 266°
2026-05-06 11:18 31.87330 -105.83870 11507 ft 272 kts 266°
2026-05-06 11:18 31.87310 -105.86100 11007 ft 272 kts 266°
2026-05-06 11:19 31.87280 -105.88277 10714 ft 265 kts 266°
2026-05-06 11:19 31.87231 -105.90413 10485 ft 256 kts 266°
2026-05-06 11:19 31.87176 -105.92481 10256 ft 249 kts 266°
2026-05-06 11:19 31.87159 -105.94497 10019 ft 246 kts 272°
2026-05-06 11:20 31.87746 -105.96407 9800 ft 255 kts 294°
2026-05-06 11:20 31.88693 -105.98212 9587 ft 263 kts 297°
2026-05-06 11:20 31.89692 -106.00027 9368 ft 270 kts 298°
2026-05-06 11:20 31.90727 -106.01882 9150 ft 269 kts 298°
2026-05-06 11:21 31.91742 -106.03695 8951 ft 262 kts 299°
2026-05-06 11:21 31.92732 -106.05467 8781 ft 256 kts 298°
2026-05-06 11:21 31.93634 -106.07259 8631 ft 253 kts 295°
2026-05-06 11:21 31.94192 -106.08452 8529 ft 248 kts 294°
2026-05-06 11:22 31.94998 -106.10214 8374 ft 240 kts 294°
2026-05-06 11:22 31.95771 -106.11925 8219 ft 233 kts 294°
2026-05-06 11:22 31.96623 -106.14179 8031 ft 220 kts 281°
2026-05-06 11:22 31.96683 -106.15372 8013 ft 213 kts 269°
2026-05-06 11:23 31.96394 -106.17051 7991 ft 208 kts 250°
2026-05-06 11:23 31.95654 -106.18498 7981 ft 214 kts 234°
2026-05-06 11:23 31.94613 -106.19835 7622 ft 225 kts 228°
2026-05-06 11:23 31.93522 -106.21158 7340 ft 225 kts 230°
2026-05-06 11:24 31.92513 -106.22548 7072 ft 222 kts 233°
2026-05-06 11:24 31.91560 -106.23962 6786 ft 213 kts 234°
2026-05-06 11:24 31.90683 -106.25227 6510 ft 187 kts 233°
2026-05-06 11:24 31.89895 -106.26318 6297 ft 162 kts 233°
2026-05-06 11:25 31.89185 -106.27294 6039 ft 155 kts 233°
2026-05-06 11:25 31.88516 -106.28248 5863 ft 148 kts 234°
2026-05-06 11:25 31.87855 -106.29184 5670 ft 150 kts 233°
2026-05-06 11:25 31.87185 -106.30136 5484 ft 151 kts 234°
2026-05-06 11:26 31.86515 -106.31076 5285 ft 153 kts 233°
2026-05-06 11:26 31.85841 -106.32028 5118 ft 150 kts 233°
2026-05-06 11:26 31.85168 -106.32969 4903 ft 149 kts 234°
2026-05-06 11:26 31.84510 -106.33879 4715 ft 144 kts 233°
2026-05-06 11:27 31.83883 -106.34783 4508 ft 141 kts 232°
2026-05-06 11:27 31.83256 -106.35665 4309 ft 139 kts 230°
2026-05-06 11:27 31.82642 -106.36533 4125 ft 137 kts 230°
2026-05-06 11:27 31.82031 -106.37372 3985 ft 127 kts 229°
2026-05-06 11:28 31.81533 -106.38065 3968 ft 86 kts 229°
2026-05-06 11:28 31.81284 -106.38411 3968 ft 41 kts 230°
2026-05-06 11:28 31.81109 -106.38653 3968 ft 36 kts 229°
2026-05-06 11:28 31.80957 -106.38864 3968 ft 32 kts 230°
2026-05-06 11:29 31.80819 -106.39058 3968 ft 29 kts 230°
2026-05-06 11:29 31.80723 -106.39192 3968 ft 15 kts 226°
2026-05-06 11:29 31.80631 -106.39240 3968 ft 16 kts 185°
2026-05-06 11:29 31.80522 -106.39254 3968 ft 15 kts 187°
2026-05-06 11:30 31.80413 -106.39271 3968 ft 16 kts 187°
2026-05-06 11:30 31.80292 -106.39290 3968 ft 18 kts 187°
2026-05-06 11:30 31.80169 -106.39317 3968 ft 18 kts 193°
2026-05-06 11:30 31.80070 -106.39345 3968 ft 3 kts 193°
2026-05-06 11:31 31.80069 -106.39346 3968 ft 0 kts 193°